Weather History for KGRF - October, 2012

Change the Weather History Date:

Monday, October 8, 2012

  Actual Average Record
Temperature  
Mean Temperature 52 °F -  
Max Temperature 70 °F 61 °F 71 °F (2000)
Min Temperature 36 °F 43 °F 36 °F (2012)
Degree Days  
Heating Degree Days 12    
Growing Degree Days 2 (Base 50)    
Moisture  
Dew Point 39 °F    
Average Humidity 64    
Maximum Humidity 90    
Minimum Humidity 33    
Precipitation  
Precipitation 0.00 in - - ()
Sea Level Pressure  
Sea Level Pressure 29.98 in    
Wind  
Wind Speed 4 mph (SSW)    
Max Wind Speed 10 mph    
Max Gust Speed -    
Visibility 10 miles    
Events      
Averages and records for this station are not official NWS values.
T = Trace of Precipitation, MM = Missing Value Source: NWS Daily Summary

Daily Weather History Graph

Daily Weather History Graph

Search for Another Location

Airport or City:

Trip Planner

Search our weather history database for the weather conditions in past years. The results will help you decide how hot, cold, wet, or windy it might be!

Date:

Astronomy

Oct. 08, 2012 Rise Set
Actual Time 7:19 AM PDT 6:35 PM PDT
Civil Twilight 6:49 AM PDT 7:05 PM PDT
Nautical Twilight 6:13 AM PDT 7:40 PM PDT
Astronomical Twilight 5:38 AM PDT 8:16 PM PDT
Moon No Moon Rise 2:51 PM PDT (10/8)
Length of Visible Light 12h 16m
Length of Day
11h 15m
Last Quarter, 45% of the Moon is Illuminated
Oct 8
Last Quarter
Oct 15
New
Oct 21
First Quarter
Oct 29
Full
Nov 6
Last Quarter

Hourly Weather History & Observations

Time (PDT) Temp. Windchill Dew Point Humidity Pressure Visibility Wind Dir Wind Speed Gust Speed Precip Events Conditions
12:59 AM 44.8 °F 42.4 °F 33.4 °F 64% 29.94 in 10.0 mi SSE 4.6 mph - N/A   Clear
1:58 AM 40.6 °F - 31.5 °F 70% 29.94 in 10.0 mi ENE 2.3 mph - N/A   Clear
2:59 AM 41.2 °F - 32.5 °F 71% 29.94 in 10.0 mi SE 2.3 mph - N/A   Clear
3:58 AM 40.3 °F - 33.4 °F 77% 29.94 in 10.0 mi SE 2.3 mph - N/A   Clear
4:59 AM 39.6 °F 36.3 °F 33.8 °F 80% 29.95 in 10.0 mi SE 4.6 mph - N/A   Clear
5:58 AM 37.8 °F - 32.7 °F 82% 29.96 in 10.0 mi ESE 2.3 mph - N/A   Clear
6:59 AM 37.4 °F 32.1 °F 32.7 °F 83% 29.96 in 10.0 mi SE 6.9 mph - N/A   Clear
7:58 AM 36.9 °F - 32.2 °F 83% 29.97 in 10.0 mi ESE 2.3 mph - N/A   Clear
8:59 AM 45.7 °F 43.4 °F 36.5 °F 70% 29.98 in 10.0 mi SE 4.6 mph - N/A   Clear
9:58 AM 54.0 °F - 37.4 °F 54% 30.00 in 10.0 mi WNW 1.2 mph - N/A   Clear
10:59 AM 59.4 °F - 38.3 °F 46% 29.99 in 10.0 mi Calm Calm - N/A   Clear
11:58 AM 66.0 °F - 36.1 °F 33% 29.99 in 10.0 mi South 6.9 mph - N/A   Clear
12:59 PM 68.0 °F - 38.8 °F 34% 29.97 in 10.0 mi West 5.8 mph - N/A   Clear
1:58 PM 68.5 °F - 39.9 °F 35% 29.96 in 10.0 mi West 4.6 mph - N/A   Clear
2:59 PM 69.6 °F - 41.2 °F 36% 29.96 in 10.0 mi West 8.1 mph - N/A   Clear
3:58 PM 69.1 °F - 45.0 °F 42% 29.96 in 10.0 mi West 10.4 mph - N/A   Clear
4:59 PM 66.9 °F - 45.3 °F 46% 29.98 in 10.0 mi West 9.2 mph - N/A   Clear
5:58 PM 64.6 °F - 47.3 °F 53% 29.98 in 10.0 mi West 6.9 mph - N/A   Clear
6:59 PM 60.4 °F - 46.8 °F 61% 29.98 in 10.0 mi West 6.9 mph - N/A   Clear
7:58 PM 56.5 °F - 46.9 °F 70% 30.00 in 10.0 mi WNW 6.9 mph - N/A   Clear
8:59 PM 53.8 °F - 47.1 °F 78% 30.02 in 10.0 mi West 3.5 mph - N/A   Clear
9:58 PM 51.6 °F - 46.9 °F 84% 30.04 in 10.0 mi WSW 2.3 mph - N/A   Clear
10:59 PM 49.1 °F - 45.3 °F 87% 30.06 in 10.0 mi SE 2.3 mph - N/A   Clear
11:58 PM 44.8 °F 43.3 °F 41.9 °F 90% 30.06 in 10.0 mi SSE 3.5 mph - N/A   Clear